This demonstration page uses our WeatherBlox Daily Observations layout. Learn more.

Left ArrowRight Arrow

36.19886, -115.1175

Hourly Observations for July 1, 2022

Temp ( °F °C ) Dew Point ( °F °C ) Humidity (%) Winds ( mph kmh ) Pressure ( in mb ) Visibility ( mi km ) Precip ( " mm )
12:53 am 00:53 Clear 93 33.9 37 2.8 14 14 WSW 8 13 29.79 1009 10 16 0.00 0.00
1:53 am 01:53 Clear 91 32.8 35 1.7 14 14 SW 14 22 29.80 1009 10 16 0.00 0.00
2:53 am 02:53 Clear 90 32.2 34 1.1 14 14 SSW 13 20 29.80 1009 10 16 0.00 0.00
3:53 am 03:53 Clear 89 31.7 36 2.2 15 15 WSW 9 15 29.81 1010 10 16 0.00 0.00
4:53 am 04:53 Clear 87 30.6 37 2.8 17 17 SE 5 7 29.83 1010 10 16 0.00 0.00
5:53 am 05:53 Sunny 87 30.6 35 1.7 16 16 SSW 14 22 29.83 1010 10 16 0.00 0.00
6:53 am 06:53 Sunny 88 31.1 32 0 13 13 S 14 22 29.84 1011 10 16 0.00 0.00
7:53 am 07:53 Sunny 91 32.8 30 -1.1 11 11 S 13 20 29.85 1011 10 16 0.00 0.00
8:53 am 08:53 Sunny 93 33.9 29 -1.7 10 10 SSE 12 19 29.87 1011 10 16 0.00 0.00
9:53 am 09:53 Sunny 96 35.6 27 -2.8 8 8 S 14 22 29.85 1011 10 16 0.00 0.00
10:53 am 10:53 Sunny 99 37.2 25 -3.9 7 7 S 15 24 29.85 1011 10 16 0.00 0.00
11:53 am 11:53 Sunny 101 38.3 23 -5 6 6 S 20 31 29.83 1010 10 16 0.00 0.00
12:53 pm 12:53 Sunny 103 39.4 21 -6.1 5 5 SSW 21 33 29.81 1009 10 16 0.00 0.00
1:53 pm 13:53 Sunny 105 40.6 17 -8.3 4 4 S 21 33 29.78 1009 10 16 0.00 0.00
2:53 pm 14:53 Sunny 106 41.1 22 -5.6 5 5 SSW 18 30 29.76 1008 10 16 0.00 0.00
3:53 pm 15:53 Sunny 106 41.1 25 -3.9 6 6 SW 20 31 29.74 1007 10 16 0.00 0.00
4:53 pm 16:53 Sunny 105 40.6 26 -3.3 6 6 SW 22 35 29.72 1007 10 16 0.00 0.00
5:53 pm 17:53 Sunny 105 40.6 30 -1.1 7 7 WSW 17 28 29.71 1006 10 16 0.00 0.00
6:53 pm 18:53 Sunny 103 39.4 30 -1.1 8 8 WSW 17 28 29.70 1006 10 16 0.00 0.00
7:53 pm 19:53 Sunny 101 38.3 29 -1.7 8 8 SW 16 26 29.70 1006 10 16 0.00 0.00
8:53 pm 20:53 Clear 99 37.2 28 -2.2 8 8 SW 13 20 29.72 1006 10 16 0.00 0.00
9:53 pm 21:53 Clear 98 36.7 30 -1.1 9 9 SSW 9 15 29.73 1007 10 16 0.00 0.00
10:53 pm 22:53 Clear 96 35.6 31 -0.6 10 10 SW 12 19 29.74 1007 10 16 0.00 0.00
11:53 pm 23:53 Clear 95 35 34 1.1 12 12 WSW 15 24 29.73 1007 10 16 0.00 0.00

Powered by AerisWeather